Hourly Data Report for October 17, 2017

All times are specified in Local Standard Time (LST). Add 1 hour to adjust for Daylight Saving Time where and when it is observed.

SATURNA ISLAND CS
BRITISH COLUMBIA

48°47'02.067" N
123°02'41.082" W
24.40 m
1017101
71473
WEZ

Download Data

Hourly Data (October 2017)
Hourly Data Report for October 17, 2017
Temp Definition
°C
Dew Point Temp Definition
°C
Rel Hum Definition
%
Wind Dir Definition
10's deg

Wind Spd Definition
km/h
Visibility Definition
km
Stn Press Definition
kPa
Hmdx Definition


Wind Chill Definition


Weather Definition


TIME
00:00 11.9 9.3 84 18 38   101.00     LegendNANA
01:00 11.8 9.3 85 19 37   100.98     LegendNANA
02:00 11.7 9.7 87 17 21   100.89     LegendNANA
03:00 11.9 9.6 86 16 34   100.72     LegendNANA
04:00 11.2 9.6 90 16 32   100.59     LegendNANA
05:00 11.3 9.8 91 17 38   100.38     LegendNANA
06:00 11.5 9.8 89 17 51   100.25     LegendNANA
07:00 11.2 9.6 90 19 43   100.40     LegendNANA
08:00 11.1 9.8 92 21 24   100.58     LegendNANA
09:00 11.4 9.0 85 24 18   100.82     LegendNANA
10:00 13.7 8.4 71 27 7   101.03     LegendNANA
11:00 13.4 8.3 71 21 3   101.15     LegendNANA
12:00 12.1 6.6 69 34 9   101.27     LegendNANA
13:00 12.3 6.8 69 32 7   101.37     LegendNANA
14:00 11.9 6.4 69 11 8   101.50     LegendNANA
15:00 11.8 6.7 71 9 2   101.59     LegendNANA
16:00 12.0 5.6 65 24 6   101.62     LegendNANA
17:00 11.4 5.1 65 24 8   101.59     LegendNANA
18:00 11.0 5.8 71 24 6   101.57     LegendNANA
19:00 10.4 6.8 79 22 10   101.59     LegendNANA
20:00 10.0 7.1 82 20 9   101.51     LegendNANA
21:00 9.7 6.7 82 20 20   101.49     LegendNANA
22:00 9.9 5.9 76 17 18   101.50     LegendNANA
23:00 9.7 5.7 76 17 19   101.48     LegendNANA

Notes on Data Quality.

Legend

  • E = Estimated
  • M = Missing
  • NA = Not Available
  • ‡ = Partner data that is not subject to review by the National Climate Archives
Date modified: